Retour au catalogue

COSMOS 1670 DEB

ActifLEO
NORAD 44569·DEBRIS·🇷🇺 Russia

Lancé Aug 1, 1985 depuis Baikonur Cosmodrome

Loading…

Prochains Passages (prochaines 24 heures)

TLE

FraisSource: Space-Track

Époque: Sep 14, 2026, 06:03 UTC

1 44569U 85064F   26257.25224803  .00022793  00000-0  36598-2 0  9995
2 44569  64.8961  76.5481 0031066 295.9410 241.6677 14.71296161119238

Suivez COSMOS 1670 DEB en temps réel avec AllMySat

Download on the App Store